Location: Bauerbach
(50.4985°N, 10.3912°E)
Time: 20:40:30
(UTC+00:00)

IRS-1D - Pass Details

Date: 13 January 2026
Orbit: 737 x 810 km, 98.8° (Epoch: 17 February)

Event Time Altitude Azimuth Distance (km) Brightness Sun altitude
Rises 04:49:05 0° 14° (NNE) 3,324 6.9 -22.3°
Reaches altitude 10° 04:51:25 10° 13° (NNE) 2,396 6.1 -22.0°
Maximum altitude 04:56:43 76° 289° (WNW) 840 3.5 -21.1°
Drops below altitude 10° 05:02:01 10° 204° (SSW) 2,392 5.9 -20.3°
Sets 05:04:20 0° 203° (SSW) 3,318 6.7 -19.9°
